Location: Arpaise
(41.0333°N, 14.7333°E)
Time: 17:11:13
(UTC+00:00)

Cosmos 1420 Rocket - Pass Details

Date: 05 July 2020
Orbit: 754 x 781 km, 74.0° (Epoch: 10 August)

Event Time Altitude Azimuth Distance (km) Brightness Sun altitude
Rises 22:52:52 0° 339° (NNW) 3,250 8.4 -26.2°
Reaches altitude 10° 22:55:14 10° 339° (NNW) 2,324 7.4 -26.3°
Maximum altitude 23:00:31 82° 253° (WSW) 789 3.9 -26.3°
Enters shadow 23:00:34 82° 242° (WSW) 789 3.9 -26.3°
